カタログに戻る

COSMOS 1275 DEB

運用中PO
NORAD 42141·DEBRIS·🇷🇺 Russia

打ち上げ Jun 4, 1981 から Plesetsk Cosmodrome

Loading…

次のパス (今後24時間)

TLE

古いSource: Space-Track

元期: Sep 1, 2026, 10:20 UTC

1 42141U 81053RD  26244.43117250  .00002486  00000-0  87041-3 0  9993
2 42141  82.7741 143.3987 0022878 141.5367 218.7458 14.34667925142966

AllMySatでCOSMOS 1275 DEBをリアルタイム追跡

Download on the App Store